Home   Weather   Astrakhan   Past weeks

Flag for Russia Past Weather in Astrakhan, Russia — Yesterday and Last 2 Weeks

Now
54 °F

Passing clouds.


Feels Like: 52 °F
Forecast: 50 / 62 °F
Wind: 6 mph from Southwest

Location: Astrakhan

Current Time: Sep 26, 2016 at 4:27:49 AM

Latest Report: Sep 26, 2016 at 4:00 AM


Visibility: N/A

Pressure: 30.01 "Hg

Humidity: 82%

Dew Point: 48 °F

Location of AstrakhanLocation

Past Weather in Astrakhan — Graph

°F

Astrakhan Temperature Yesterday

Maximum temperature yesterday: 66 °F (at 2:30 PM)
Minimum temperature yesterday: 48 °F (at 5:00 AM)
Average temperature yesterday: 56 °F

High & Low Weather Summary for the Past Weeks

 TemperatureHumidityPressure
High82 °F (Sep 13, 4:00 PM)100% (Sep 20, 6:00 AM)30.09 "Hg (Sep 20, 6:00 AM)
Low43 °F (Sep 19, 11:30 PM)21% (Sep 17, 2:30 PM)29.59 "Hg (Sep 21, 1:00 PM)
Average61 °F62%29.89 "Hg
* Reported Sep 11 3:00 AM — Sep 26 3:00 AM, Astrakhan, Weather by CustomWeather, © 2016

Note: Actual official high and low records may vary slightly from our data, if they occured in-between our weather recording intervals... More about our weather records

Advertising

Astrakhan Weather History for the Previous 24 Hours

Scroll right to see more
 ConditionsComfort  
Time TempWeatherWind HumidityBarometerVisibility
3:00 AM
Mon, Sep 26
55 °FPassing clouds.8 mph82%30.01 "HgN/A
2:30 AM55 °FPassing clouds.8 mph82%30.01 "HgN/A
2:00 AM55 °FPassing clouds.8 mph82%30.01 "HgN/A
1:30 AM55 °FPassing clouds.6 mph82%30.01 "HgN/A
1:00 AM55 °FPassing clouds.6 mph82%30.01 "HgN/A
12:30 AM55 °FClear.8 mph82%30.01 "Hg10 mi
12:00 AM52 °FClear.6 mph88%30.01 "Hg10 mi
11:30 PM
Sun, Sep 25
52 °FClear.6 mph88%30.01 "Hg10 mi
11:00 PM54 °FClear.6 mph82%30.04 "Hg10 mi
10:30 PM55 °FClear.8 mph77%30.04 "Hg10 mi
10:00 PM55 °FClear.8 mph77%30.01 "Hg10 mi
9:30 PM55 °FClear.6 mph77%30.01 "Hg10 mi
9:00 PM55 °FClear.8 mph77%30.01 "Hg10 mi
8:30 PM55 °FClear.8 mph77%30.01 "Hg10 mi
8:00 PM57 °FClear.10 mph72%30.01 "Hg10 mi
7:30 PM57 °FSunny.10 mph72%30.01 "Hg10 mi
7:00 PM59 °FSunny.8 mph68%30.01 "Hg10 mi
6:30 PM59 °FScattered clouds.8 mph63%30.01 "HgN/A
6:00 PM63 °FScattered clouds.8 mph42%29.98 "HgN/A
5:30 PM64 °FScattered clouds.8 mph43%29.98 "HgN/A
5:00 PM64 °FScattered clouds.8 mph43%29.98 "HgN/A
4:30 PM64 °FScattered clouds.13 mph43%29.98 "HgN/A
4:00 PM63 °FScattered clouds.8 mph45%29.98 "HgN/A
3:30 PM64 °FScattered clouds.15 mph40%29.98 "HgN/A
3:00 PM66 °FScattered clouds.13 mph35%29.98 "HgN/A
2:30 PM66 °FScattered clouds.15 mph37%29.98 "HgN/A
2:00 PM64 °FScattered clouds.15 mph40%29.98 "HgN/A
1:00 PM64 °FSunny.15 mph43%30.01 "Hg10 mi
12:00 PM63 °FSunny.17 mph49%30.01 "Hg10 mi
11:30 AM61 °FSunny.17 mph48%30.01 "Hg10 mi
11:00 AM61 °FSunny.15 mph52%30.01 "Hg10 mi
10:30 AM59 °FSunny.15 mph59%30.01 "Hg10 mi
10:00 AM57 °FSunny.15 mph67%30.01 "Hg10 mi
9:30 AM55 °FSunny.13 mph72%30.01 "Hg10 mi
9:00 AM54 °FSunny.13 mph77%30.01 "Hg10 mi
8:30 AM52 °FSunny.10 mph82%30.01 "Hg10 mi
8:00 AM50 °FSunny.10 mph88%29.98 "Hg10 mi
7:30 AM48 °FClear.8 mph87%29.98 "Hg10 mi
7:00 AM48 °FClear.8 mph87%29.98 "Hg10 mi
6:30 AM48 °FClear.8 mph87%29.98 "Hg10 mi
6:00 AM48 °FClear.8 mph87%29.98 "Hg10 mi
5:30 AM48 °FClear.8 mph87%29.98 "Hg10 mi
5:00 AM48 °FClear.10 mph87%29.98 "Hg10 mi
4:30 AM50 °FClear.10 mph76%29.95 "Hg10 mi
4:00 AM50 °FClear.13 mph76%29.95 "Hg10 mi
Weather by CustomWeather, © 2016

See weather overviewHow to use our weather pages